This is the latest recevied weather packets stored in our database for station/object KF4UQS-14. If no packets are shown the sender has not sent any weather packets the latest 10 day(s).
| Time | Temp. | Humidity | Pressure | Rain* | Wind** | Luminosity | Snow |
|---|---|---|---|---|---|---|---|
| 1777477031 | 19.44° C | 66% | 1014.6 hPa | 0 mm | - | 492 W/m² | - |
| 1777476728 | 19.44° C | 68% | 1014.7 hPa | 0 mm | - | 469 W/m² | - |
| 1777476424 | 19.44° C | 67% | 1014.7 hPa | 0 mm | - | 472 W/m² | - |
| 1777476121 | 19.44° C | 67% | 1015.1 hPa | 0 mm | - | 458 W/m² | - |
| 1777475811 | 19.44° C | 68% | 1015 hPa | 0 mm | - | 422 W/m² | - |
| 1777475508 | 18.89° C | 68% | 1015.4 hPa | 0 mm | - | 438 W/m² | - |
| 1777475204 | 18.89° C | 68% | 1015.5 hPa | 0 mm | - | 299 W/m² | - |
| 1777474899 | 18.33° C | 67% | 1015.6 hPa | 0 mm | - | 252 W/m² | - |
| 1777474595 | 18.89° C | 67% | 1015.6 hPa | 0 mm | - | 297 W/m² | - |
| 1777474292 | 18.33° C | 66% | 1015.9 hPa | 0 mm | - | 404 W/m² | - |
| 1777473988 | 18.89° C | 65% | 1015.7 hPa | 0 mm | - | 371 W/m² | - |
| 1777473686 | 18.33° C | 68% | 1015.9 hPa | 0 mm | - | 346 W/m² | - |
| 1777473382 | 18.33° C | 67% | 1015.8 hPa | 0 mm | - | 373 W/m² | - |
| 1777473079 | 18.33° C | 66% | 1015.9 hPa | 0 mm | - | 445 W/m² | - |
| 1777472776 | 18.33° C | 67% | 1015.9 hPa | 0 mm | - | 398 W/m² | - |
| 1777472472 | 18.33° C | 66% | 1015.9 hPa | 0 mm | - | 375 W/m² | - |
| 1777472170 | 17.78° C | 67% | 1015.8 hPa | 0 mm | - | 343 W/m² | - |
| 1777471870 | 17.78° C | 66% | 1015.8 hPa | 0 mm | - | 381 W/m² | - |
| 1777471566 | 17.22° C | 67% | 1015.7 hPa | 0 mm | - | 389 W/m² | - |
| 1777471263 | 17.22° C | 66% | 1015.7 hPa | 0 mm | - | 271 W/m² | - |
| 1777470960 | 17.22° C | 67% | 1015.9 hPa | 0 mm | - | 225 W/m² | - |
| 1777470657 | 17.22° C | 66% | 1015.7 hPa | 0 mm | - | 202 W/m² | - |
| 1777470352 | 17.22° C | 67% | 1015.8 hPa | 0 mm | - | 222 W/m² | - |
| 1777470049 | 17.22° C | 67% | 1016.2 hPa | 0 mm | - | 196 W/m² | - |
| 1777469745 | 16.67° C | 68% | 1016.3 hPa | 0 mm | - | 187 W/m² | - |
* Rain latest hour (hover to see other rain measurements)
** Current wind speed in m/s (hover to see current wind gust speed)